Time,TemperatureF,DewpointF,PressureIn,WindDirection,WindDirectionDegrees,WindSpeedMPH,WindSpeedGustMPH,Humidity,HourlyPrecipIn,Conditions,Clouds,dailyrainin,SoftwareType,DateUTC
2013-09-14 00:01:00,56.0,50.0,29.84,NW,315,3.0,10.0,81,0.00,,,0.00,Rainwise IP-100,2013-09-14 04:01:00,
2013-09-14 00:06:00,56.0,50.0,29.84,East,90,1.0,8.0,81,0.00,,,0.00,Rainwise IP-100,2013-09-14 04:06:00,
2013-09-14 00:11:00,56.0,50.0,29.84,North,360,2.0,7.0,82,0.00,,,0.00,Rainwise IP-100,2013-09-14 04:11:00,
2013-09-14 00:16:00,56.0,50.0,29.84,NW,315,2.0,8.0,83,0.00,,,0.00,Rainwise IP-100,2013-09-14 04:16:00,
2013-09-14 00:21:00,56.0,51.0,29.85,NW,315,0.0,6.0,84,0.00,,,0.00,Rainwise IP-100,2013-09-14 04:21:00,
2013-09-14 00:26:00,56.0,51.0,29.85,NW,315,1.0,6.0,84,0.00,,,0.00,Rainwise IP-100,2013-09-14 04:26:00,
2013-09-14 00:31:00,56.0,51.0,29.85,North,360,1.0,7.0,85,0.00,,,0.00,Rainwise IP-100,2013-09-14 04:31:00,
2013-09-14 00:36:00,55.0,50.0,29.85,North,360,2.0,10.0,84,0.00,,,0.00,Rainwise IP-100,2013-09-14 04:36:00,
2013-09-14 00:41:00,55.0,51.0,29.86,North,360,0.0,7.0,86,0.00,,,0.00,Rainwise IP-100,2013-09-14 04:41:00,
2013-09-14 00:46:00,55.0,51.0,29.86,North,360,4.0,4.0,86,0.00,,,0.00,Rainwise IP-100,2013-09-14 04:46:00,
2013-09-14 00:51:00,55.0,52.0,29.86,North,360,1.0,5.0,88,0.00,,,0.00,Rainwise IP-100,2013-09-14 04:51:00,
2013-09-14 00:56:00,54.0,51.0,29.86,NNW,337,5.0,5.0,91,0.00,,,0.00,Rainwise IP-100,2013-09-14 04:56:00,
2013-09-14 01:01:00,54.0,52.0,29.87,NNW,337,2.0,6.0,93,0.00,,,0.00,Rainwise IP-100,2013-09-14 05:01:00,
2013-09-14 01:06:00,54.0,52.0,29.87,NW,315,3.0,4.0,93,0.00,,,0.00,Rainwise IP-100,2013-09-14 05:06:00,
2013-09-14 01:11:00,54.0,51.0,29.87,NW,315,2.0,7.0,91,0.00,,,0.00,Rainwise IP-100,2013-09-14 05:11:00,
2013-09-14 01:16:00,54.0,50.0,29.87,NNW,337,6.0,8.0,89,0.00,,,0.00,Rainwise IP-100,2013-09-14 05:16:00,
2013-09-14 01:21:00,54.0,50.0,29.88,North,360,4.0,10.0,87,0.00,,,0.00,Rainwise IP-100,2013-09-14 05:21:00,
2013-09-14 01:26:00,54.0,50.0,29.88,North,360,4.0,9.0,87,0.00,,,0.00,Rainwise IP-100,2013-09-14 05:26:00,
2013-09-14 01:31:00,54.0,50.0,29.87,North,360,6.0,7.0,86,0.00,,,0.00,Rainwise IP-100,2013-09-14 05:31:00,
2013-09-14 01:36:00,55.0,50.0,29.87,East,90,2.0,13.0,83,0.00,,,0.00,Rainwise IP-100,2013-09-14 05:36:00,
2013-09-14 01:41:00,55.0,50.0,29.87,NNW,337,2.0,10.0,84,0.00,,,0.00,Rainwise IP-100,2013-09-14 05:41:00,
2013-09-14 01:46:00,55.0,50.0,29.87,NW,315,8.0,8.0,84,0.00,,,0.00,Rainwise IP-100,2013-09-14 05:46:00,
2013-09-14 01:51:00,55.0,50.0,29.87,North,360,9.0,12.0,83,0.00,,,0.00,Rainwise IP-100,2013-09-14 05:51:00,
2013-09-14 01:56:00,55.0,50.0,29.87,North,360,4.0,13.0,83,0.00,,,0.00,Rainwise IP-100,2013-09-14 05:56:00,
2013-09-14 02:01:00,55.0,50.0,29.87,NE,45,4.0,11.0,82,0.00,,,0.00,Rainwise IP-100,2013-09-14 06:01:00,
2013-09-14 02:06:00,55.0,50.0,29.87,North,360,8.0,12.0,81,0.00,,,0.00,Rainwise IP-100,2013-09-14 06:06:00,
2013-09-14 02:11:00,55.0,50.0,29.87,NNW,337,4.0,9.0,82,0.00,,,0.00,Rainwise IP-100,2013-09-14 06:11:00,
2013-09-14 02:16:00,54.0,49.0,29.87,West,270,1.0,8.0,83,0.00,,,0.00,Rainwise IP-100,2013-09-14 06:16:00,
2013-09-14 02:21:00,54.0,49.0,29.87,North,360,3.0,8.0,83,0.00,,,0.00,Rainwise IP-100,2013-09-14 06:21:00,
2013-09-14 02:26:00,54.0,49.0,29.87,NNW,337,0.0,10.0,83,0.00,,,0.00,Rainwise IP-100,2013-09-14 06:26:00,
2013-09-14 02:31:00,54.0,49.0,29.88,SW,225,2.0,7.0,83,0.00,,,0.00,Rainwise IP-100,2013-09-14 06:31:00,
2013-09-14 02:36:00,54.0,49.0,29.88,North,360,3.0,7.0,84,0.00,,,0.00,Rainwise IP-100,2013-09-14 06:36:00,
2013-09-14 02:41:00,54.0,49.0,29.88,NW,315,7.0,8.0,83,0.00,,,0.00,Rainwise IP-100,2013-09-14 06:41:00,
2013-09-14 02:46:00,54.0,49.0,29.88,South,180,0.0,12.0,84,0.00,,,0.00,Rainwise IP-100,2013-09-14 06:46:00,
2013-09-14 02:51:00,54.0,49.0,29.88,North,360,1.0,8.0,83,0.00,,,0.00,Rainwise IP-100,2013-09-14 06:51:00,
2013-09-14 02:56:00,54.0,49.0,29.88,SSW,202,2.0,9.0,84,0.00,,,0.00,Rainwise IP-100,2013-09-14 06:56:00,
2013-09-14 03:01:00,54.0,48.0,29.88,NNW,337,6.0,10.0,81,0.00,,,0.00,Rainwise IP-100,2013-09-14 07:01:00,
2013-09-14 03:06:00,54.0,48.0,29.88,NNW,337,5.0,10.0,82,0.00,,,0.00,Rainwise IP-100,2013-09-14 07:06:00,
2013-09-14 03:11:00,54.0,48.0,29.88,NW,315,7.0,12.0,81,0.00,,,0.00,Rainwise IP-100,2013-09-14 07:11:00,
2013-09-14 03:16:00,54.0,48.0,29.88,NW,315,4.0,9.0,81,0.00,,,0.00,Rainwise IP-100,2013-09-14 07:16:00,
2013-09-14 03:21:00,54.0,48.0,29.88,NW,315,1.0,9.0,81,0.00,,,0.00,Rainwise IP-100,2013-09-14 07:21:00,
2013-09-14 03:26:00,54.0,48.0,29.88,SW,225,0.0,9.0,82,0.00,,,0.00,Rainwise IP-100,2013-09-14 07:26:00,
2013-09-14 03:31:00,54.0,49.0,29.88,NE,45,0.0,7.0,83,0.00,,,0.00,Rainwise IP-100,2013-09-14 07:31:00,
2013-09-14 03:36:00,53.0,47.0,29.88,ENE,67,0.0,6.0,83,0.00,,,0.00,Rainwise IP-100,2013-09-14 07:36:00,
2013-09-14 03:41:00,53.0,48.0,29.88,NW,315,1.0,7.0,85,0.00,,,0.00,Rainwise IP-100,2013-09-14 07:41:00,
2013-09-14 03:46:00,53.0,48.0,29.88,North,360,3.0,5.0,85,0.00,,,0.00,Rainwise IP-100,2013-09-14 07:46:00,
2013-09-14 03:51:00,52.0,48.0,29.88,East,90,1.0,5.0,86,0.00,,,0.00,Rainwise IP-100,2013-09-14 07:51:00,
2013-09-14 03:56:00,52.0,48.0,29.88,NE,45,2.0,3.0,87,0.00,,,0.00,Rainwise IP-100,2013-09-14 07:56:00,
2013-09-14 04:01:00,52.0,48.0,29.89,North,360,1.0,7.0,88,0.00,,,0.00,Rainwise IP-100,2013-09-14 08:01:00,
2013-09-14 04:06:00,52.0,48.0,29.89,North,360,1.0,6.0,88,0.00,,,0.00,Rainwise IP-100,2013-09-14 08:06:00,
2013-09-14 04:11:00,51.0,49.0,29.89,South,180,1.0,4.0,92,0.00,,,0.00,Rainwise IP-100,2013-09-14 08:11:00,
2013-09-14 04:16:00,51.0,49.0,29.89,South,180,3.0,3.0,92,0.00,,,0.00,Rainwise IP-100,2013-09-14 08:16:00,
2013-09-14 04:21:00,51.0,49.0,29.90,SE,135,1.0,3.0,93,0.00,,,0.00,Rainwise IP-100,2013-09-14 08:21:00,
2013-09-14 04:26:00,51.0,49.0,29.90,SE,135,0.0,3.0,93,0.00,,,0.00,Rainwise IP-100,2013-09-14 08:26:00,
2013-09-14 04:31:00,51.0,49.0,29.90,SE,135,1.0,2.0,93,0.00,,,0.00,Rainwise IP-100,2013-09-14 08:31:00,
2013-09-14 04:36:00,51.0,50.0,29.90,SE,135,1.0,2.0,95,0.00,,,0.00,Rainwise IP-100,2013-09-14 08:36:00,
2013-09-14 04:41:00,51.0,49.0,29.90,NNW,337,2.0,7.0,92,0.00,,,0.00,Rainwise IP-100,2013-09-14 08:41:00,
2013-09-14 04:46:00,51.0,48.0,29.90,NE,45,2.0,9.0,90,0.00,,,0.00,Rainwise IP-100,2013-09-14 08:46:00,
2013-09-14 04:51:00,52.0,48.0,29.89,NNE,22,2.0,10.0,88,0.00,,,0.00,Rainwise IP-100,2013-09-14 08:51:00,
2013-09-14 04:56:00,52.0,49.0,29.89,North,360,0.0,7.0,90,0.00,,,0.00,Rainwise IP-100,2013-09-14 08:56:00,
2013-09-14 05:01:00,52.0,48.0,29.89,South,180,1.0,6.0,88,0.00,,,0.00,Rainwise IP-100,2013-09-14 09:01:00,
2013-09-14 05:06:00,52.0,48.0,29.89,NE,45,1.0,7.0,88,0.00,,,0.00,Rainwise IP-100,2013-09-14 09:06:00,
2013-09-14 05:11:00,52.0,48.0,29.89,NNW,337,4.0,7.0,88,0.00,,,0.00,Rainwise IP-100,2013-09-14 09:11:00,
2013-09-14 05:16:00,52.0,48.0,29.89,NE,45,2.0,6.0,87,0.00,,,0.00,Rainwise IP-100,2013-09-14 09:16:00,
2013-09-14 05:21:00,52.0,48.0,29.90,North,360,3.0,7.0,86,0.00,,,0.00,Rainwise IP-100,2013-09-14 09:21:00,
2013-09-14 05:26:00,52.0,47.0,29.90,NNE,22,4.0,10.0,85,0.00,,,0.00,Rainwise IP-100,2013-09-14 09:26:00,
2013-09-14 05:31:00,52.0,47.0,29.90,WNW,292,7.0,7.0,83,0.00,,,0.00,Rainwise IP-100,2013-09-14 09:31:00,
2013-09-14 05:36:00,52.0,47.0,29.90,North,360,6.0,12.0,84,0.00,,,0.00,Rainwise IP-100,2013-09-14 09:36:00,
2013-09-14 05:41:00,52.0,47.0,29.90,North,360,4.0,10.0,84,0.00,,,0.00,Rainwise IP-100,2013-09-14 09:41:00,
2013-09-14 05:46:00,53.0,47.0,29.90,NW,315,9.0,9.0,83,0.00,,,0.00,Rainwise IP-100,2013-09-14 09:46:00,
2013-09-14 05:51:00,52.0,47.0,29.91,North,360,1.0,9.0,85,0.00,,,0.00,Rainwise IP-100,2013-09-14 09:51:00,
2013-09-14 05:56:00,52.0,47.0,29.91,North,360,2.0,7.0,84,0.00,,,0.00,Rainwise IP-100,2013-09-14 09:56:00,
2013-09-14 06:01:00,52.0,47.0,29.92,NNW,337,5.0,8.0,84,0.00,,,0.00,Rainwise IP-100,2013-09-14 10:01:00,
2013-09-14 06:06:00,52.0,47.0,29.92,North,360,2.0,7.0,85,0.00,,,0.00,Rainwise IP-100,2013-09-14 10:06:00,
2013-09-14 06:11:00,52.0,48.0,29.92,West,270,0.0,9.0,86,0.00,,,0.00,Rainwise IP-100,2013-09-14 10:11:00,
2013-09-14 06:16:00,52.0,48.0,29.92,NW,315,2.0,10.0,86,0.00,,,0.00,Rainwise IP-100,2013-09-14 10:16:00,
2013-09-14 06:21:00,52.0,47.0,29.92,East,90,1.0,10.0,85,0.00,,,0.00,Rainwise IP-100,2013-09-14 10:21:00,
2013-09-14 06:26:00,52.0,47.0,29.92,North,360,3.0,7.0,85,0.00,,,0.00,Rainwise IP-100,2013-09-14 10:26:00,
2013-09-14 06:31:00,52.0,47.0,29.92,North,360,3.0,6.0,85,0.00,,,0.00,Rainwise IP-100,2013-09-14 10:31:00,
2013-09-14 06:36:00,52.0,48.0,29.92,NNW,337,4.0,6.0,87,0.00,,,0.00,Rainwise IP-100,2013-09-14 10:36:00,
2013-09-14 06:41:00,51.0,47.0,29.92,North,360,5.0,7.0,86,0.00,,,0.00,Rainwise IP-100,2013-09-14 10:41:00,
2013-09-14 06:46:00,51.0,47.0,29.92,NNW,337,2.0,5.0,85,0.00,,,0.00,Rainwise IP-100,2013-09-14 10:46:00,
2013-09-14 06:51:00,51.0,47.0,29.93,NNW,337,1.0,4.0,86,0.00,,,0.00,Rainwise IP-100,2013-09-14 10:51:00,
2013-09-14 06:56:00,51.0,47.0,29.93,NW,315,2.0,3.0,85,0.00,,,0.00,Rainwise IP-100,2013-09-14 10:56:00,
2013-09-14 07:01:00,52.0,47.0,29.93,NW,315,5.0,6.0,85,0.00,,,0.00,Rainwise IP-100,2013-09-14 11:01:00,
2013-09-14 07:06:00,52.0,47.0,29.93,North,360,5.0,6.0,85,0.00,,,0.00,Rainwise IP-100,2013-09-14 11:06:00,
2013-09-14 07:11:00,53.0,47.0,29.94,NE,45,1.0,6.0,83,0.00,,,0.00,Rainwise IP-100,2013-09-14 11:11:00,
2013-09-14 07:16:00,53.0,47.0,29.94,North,360,4.0,6.0,82,0.00,,,0.00,Rainwise IP-100,2013-09-14 11:16:00,
2013-09-14 07:21:00,53.0,47.0,29.94,North,360,3.0,7.0,81,0.00,,,0.00,Rainwise IP-100,2013-09-14 11:21:00,
2013-09-14 07:26:00,54.0,48.0,29.94,NW,315,6.0,6.0,81,0.00,,,0.00,Rainwise IP-100,2013-09-14 11:26:00,
2013-09-14 07:31:00,54.0,48.0,29.94,North,360,2.0,7.0,82,0.00,,,0.00,Rainwise IP-100,2013-09-14 11:31:00,
2013-09-14 07:36:00,54.0,47.0,29.94,NNE,22,1.0,9.0,79,0.00,,,0.00,Rainwise IP-100,2013-09-14 11:36:00,
2013-09-14 07:41:00,54.0,47.0,29.94,North,360,7.0,9.0,78,0.00,,,0.00,Rainwise IP-100,2013-09-14 11:41:00,
2013-09-14 07:46:00,55.0,48.0,29.94,North,360,4.0,8.0,78,0.00,,,0.00,Rainwise IP-100,2013-09-14 11:46:00,
2013-09-14 07:51:00,55.0,47.0,29.94,North,360,2.0,9.0,76,0.00,,,0.00,Rainwise IP-100,2013-09-14 11:51:00,
2013-09-14 07:56:00,56.0,47.0,29.94,NNW,337,4.0,10.0,73,0.00,,,0.00,Rainwise IP-100,2013-09-14 11:56:00,
2013-09-14 08:01:00,56.0,47.0,29.94,NE,45,3.0,8.0,74,0.00,,,0.00,Rainwise IP-100,2013-09-14 12:01:00,
2013-09-14 08:06:00,56.0,47.0,29.94,NNW,337,7.0,9.0,73,0.00,,,0.00,Rainwise IP-100,2013-09-14 12:06:00,
2013-09-14 08:11:00,57.0,48.0,29.94,North,360,3.0,10.0,73,0.00,,,0.00,Rainwise IP-100,2013-09-14 12:11:00,
2013-09-14 08:16:00,57.0,48.0,29.94,NNW,337,1.0,9.0,72,0.00,,,0.00,Rainwise IP-100,2013-09-14 12:16:00,
2013-09-14 08:21:00,57.0,46.0,29.94,North,360,8.0,8.0,67,0.00,,,0.00,Rainwise IP-100,2013-09-14 12:21:00,
2013-09-14 08:26:00,57.0,47.0,29.94,North,360,9.0,12.0,68,0.00,,,0.00,Rainwise IP-100,2013-09-14 12:26:00,
2013-09-14 08:31:00,57.0,47.0,29.95,NE,45,1.0,10.0,68,0.00,,,0.00,Rainwise IP-100,2013-09-14 12:31:00,
2013-09-14 08:36:00,58.0,47.0,29.95,North,360,8.0,8.0,66,0.00,,,0.00,Rainwise IP-100,2013-09-14 12:36:00,
2013-09-14 08:41:00,58.0,47.0,29.95,NE,45,2.0,12.0,67,0.00,,,0.00,Rainwise IP-100,2013-09-14 12:41:00,
2013-09-14 08:46:00,58.0,47.0,29.95,North,360,6.0,10.0,66,0.00,,,0.00,Rainwise IP-100,2013-09-14 12:46:00,
2013-09-14 08:51:00,58.0,46.0,29.95,NE,45,12.0,14.0,64,0.00,,,0.00,Rainwise IP-100,2013-09-14 12:51:00,
2013-09-14 08:56:00,58.0,47.0,29.95,North,360,6.0,14.0,66,0.00,,,0.00,Rainwise IP-100,2013-09-14 12:56:00,
2013-09-14 09:01:00,59.0,47.0,29.95,NNW,337,8.0,10.0,64,0.00,,,0.00,Rainwise IP-100,2013-09-14 13:01:00,
2013-09-14 09:06:00,58.0,46.0,29.95,North,360,14.0,17.0,64,0.00,,,0.00,Rainwise IP-100,2013-09-14 13:06:00,
2013-09-14 09:11:00,59.0,46.0,29.96,NNW,337,13.0,16.0,62,0.00,,,0.00,Rainwise IP-100,2013-09-14 13:11:00,
2013-09-14 09:16:00,59.0,47.0,29.96,North,360,6.0,19.0,63,0.00,,,0.00,Rainwise IP-100,2013-09-14 13:16:00,
2013-09-14 09:21:00,60.0,47.0,29.96,SW,225,2.0,13.0,64,0.00,,,0.00,Rainwise IP-100,2013-09-14 13:21:00,
2013-09-14 09:26:00,60.0,47.0,29.96,ENE,67,1.0,13.0,62,0.00,,,0.00,Rainwise IP-100,2013-09-14 13:26:00,
2013-09-14 09:31:00,60.0,47.0,29.95,North,360,8.0,10.0,61,0.00,,,0.00,Rainwise IP-100,2013-09-14 13:31:00,
2013-09-14 09:36:00,60.0,47.0,29.95,NW,315,5.0,13.0,62,0.00,,,0.00,Rainwise IP-100,2013-09-14 13:36:00,
2013-09-14 09:41:00,61.0,47.0,29.95,North,360,7.0,15.0,61,0.00,,,0.00,Rainwise IP-100,2013-09-14 13:41:00,
2013-09-14 09:46:00,61.0,47.0,29.95,North,360,4.0,11.0,59,0.00,,,0.00,Rainwise IP-100,2013-09-14 13:46:00,
2013-09-14 09:51:00,61.0,47.0,29.96,North,360,1.0,13.0,60,0.00,,,0.00,Rainwise IP-100,2013-09-14 13:51:00,
2013-09-14 09:56:00,61.0,47.0,29.96,North,360,14.0,14.0,59,0.00,,,0.00,Rainwise IP-100,2013-09-14 13:56:00,
2013-09-14 10:01:00,61.0,47.0,29.96,NNW,337,13.0,16.0,59,0.00,,,0.00,Rainwise IP-100,2013-09-14 14:01:00,
2013-09-14 10:06:00,61.0,49.0,29.96,South,180,3.0,13.0,64,0.00,,,0.00,Rainwise IP-100,2013-09-14 14:06:00,
2013-09-14 10:11:00,62.0,49.0,29.95,SW,225,0.0,10.0,63,0.00,,,0.00,Rainwise IP-100,2013-09-14 14:11:00,
2013-09-14 10:16:00,62.0,47.0,29.95,North,360,3.0,9.0,59,0.00,,,0.00,Rainwise IP-100,2013-09-14 14:16:00,
2013-09-14 10:21:00,63.0,48.0,29.94,WSW,247,4.0,13.0,58,0.00,,,0.00,Rainwise IP-100,2013-09-14 14:21:00,
2013-09-14 10:26:00,63.0,48.0,29.94,NW,315,1.0,11.0,59,0.00,,,0.00,Rainwise IP-100,2013-09-14 14:26:00,
2013-09-14 10:31:00,62.0,47.0,29.95,North,360,12.0,12.0,57,0.00,,,0.00,Rainwise IP-100,2013-09-14 14:31:00,
2013-09-14 10:36:00,62.0,47.0,29.95,SW,225,1.0,13.0,58,0.00,,,0.00,Rainwise IP-100,2013-09-14 14:36:00,
2013-09-14 10:41:00,62.0,47.0,29.95,NW,315,8.0,17.0,58,0.00,,,0.00,Rainwise IP-100,2013-09-14 14:41:00,
2013-09-14 10:46:00,63.0,47.0,29.95,West,270,2.0,11.0,57,0.00,,,0.00,Rainwise IP-100,2013-09-14 14:46:00,
2013-09-14 10:51:00,63.0,47.0,29.95,NW,315,6.0,10.0,56,0.00,,,0.00,Rainwise IP-100,2013-09-14 14:51:00,
2013-09-14 10:56:00,63.0,47.0,29.95,East,90,2.0,10.0,57,0.00,,,0.00,Rainwise IP-100,2013-09-14 14:56:00,
2013-09-14 11:01:00,64.0,48.0,29.94,North,360,4.0,10.0,57,0.00,,,0.00,Rainwise IP-100,2013-09-14 15:01:00,
2013-09-14 11:06:00,64.0,47.0,29.94,West,270,2.0,12.0,54,0.00,,,0.00,Rainwise IP-100,2013-09-14 15:06:00,
2013-09-14 11:11:00,64.0,48.0,29.94,NNE,22,6.0,13.0,56,0.00,,,0.00,Rainwise IP-100,2013-09-14 15:11:00,
2013-09-14 11:16:00,64.0,47.0,29.94,NNE,22,5.0,10.0,55,0.00,,,0.00,Rainwise IP-100,2013-09-14 15:16:00,
2013-09-14 11:21:00,64.0,48.0,29.95,North,360,6.0,12.0,57,0.00,,,0.00,Rainwise IP-100,2013-09-14 15:21:00,
2013-09-14 11:26:00,64.0,47.0,29.95,NW,315,6.0,14.0,54,0.00,,,0.00,Rainwise IP-100,2013-09-14 15:26:00,
2013-09-14 11:31:00,64.0,47.0,29.94,NNE,22,6.0,13.0,55,0.00,,,0.00,Rainwise IP-100,2013-09-14 15:31:00,
2013-09-14 11:36:00,64.0,47.0,29.94,North,360,4.0,12.0,55,0.00,,,0.00,Rainwise IP-100,2013-09-14 15:36:00,
2013-09-14 11:41:00,64.0,47.0,29.95,West,270,2.0,11.0,53,0.00,,,0.00,Rainwise IP-100,2013-09-14 15:41:00,
2013-09-14 11:46:00,64.0,48.0,29.95,West,270,4.0,15.0,56,0.00,,,0.00,Rainwise IP-100,2013-09-14 15:46:00,
2013-09-14 11:51:00,64.0,47.0,29.95,NNW,337,6.0,11.0,54,0.00,,,0.00,Rainwise IP-100,2013-09-14 15:51:00,
2013-09-14 11:56:00,65.0,47.0,29.95,NE,45,4.0,13.0,53,0.00,,,0.00,Rainwise IP-100,2013-09-14 15:56:00,
2013-09-14 12:01:00,65.0,47.0,29.95,West,270,4.0,10.0,52,0.00,,,0.00,Rainwise IP-100,2013-09-14 16:01:00,
2013-09-14 12:06:00,66.0,49.0,29.95,SW,225,0.0,12.0,54,0.00,,,0.00,Rainwise IP-100,2013-09-14 16:06:00,
2013-09-14 12:11:00,64.0,46.0,29.94,North,360,6.0,16.0,52,0.00,,,0.00,Rainwise IP-100,2013-09-14 16:11:00,
2013-09-14 12:16:00,64.0,47.0,29.94,North,360,9.0,13.0,54,0.00,,,0.00,Rainwise IP-100,2013-09-14 16:16:00,
2013-09-14 12:21:00,64.0,47.0,29.96,NE,45,0.0,13.0,55,0.00,,,0.00,Rainwise IP-100,2013-09-14 16:21:00,
2013-09-14 12:26:00,64.0,46.0,29.96,NW,315,9.0,11.0,52,0.00,,,0.00,Rainwise IP-100,2013-09-14 16:26:00,
2013-09-14 12:31:00,64.0,46.0,29.96,West,270,5.0,13.0,52,0.00,,,0.00,Rainwise IP-100,2013-09-14 16:31:00,
2013-09-14 12:36:00,65.0,47.0,29.96,NNW,337,4.0,10.0,53,0.00,,,0.00,Rainwise IP-100,2013-09-14 16:36:00,
2013-09-14 12:41:00,66.0,47.0,29.95,NNW,337,4.0,12.0,50,0.00,,,0.00,Rainwise IP-100,2013-09-14 16:41:00,
2013-09-14 12:46:00,67.0,49.0,29.95,NNE,22,2.0,12.0,52,0.00,,,0.00,Rainwise IP-100,2013-09-14 16:46:00,
2013-09-14 12:51:00,66.0,47.0,29.94,WNW,292,3.0,13.0,52,0.00,,,0.00,Rainwise IP-100,2013-09-14 16:51:00,
2013-09-14 12:56:00,64.0,48.0,29.94,NW,315,9.0,19.0,56,0.00,,,0.00,Rainwise IP-100,2013-09-14 16:56:00,
2013-09-14 13:01:00,64.0,47.0,29.96,NNW,337,9.0,11.0,55,0.00,,,0.00,Rainwise IP-100,2013-09-14 17:01:00,
2013-09-14 13:06:00,64.0,47.0,29.96,North,360,8.0,13.0,55,0.00,,,0.00,Rainwise IP-100,2013-09-14 17:06:00,
2013-09-14 13:11:00,63.0,47.0,29.96,South,180,1.0,15.0,55,0.00,,,0.00,Rainwise IP-100,2013-09-14 17:11:00,
2013-09-14 13:16:00,64.0,49.0,29.96,West,270,2.0,11.0,59,0.00,,,0.00,Rainwise IP-100,2013-09-14 17:16:00,
2013-09-14 13:21:00,64.0,49.0,29.97,NNW,337,3.0,10.0,58,0.00,,,0.00,Rainwise IP-100,2013-09-14 17:21:00,
2013-09-14 13:26:00,63.0,47.0,29.97,NW,315,10.0,10.0,57,0.00,,,0.00,Rainwise IP-100,2013-09-14 17:26:00,
2013-09-14 13:31:00,64.0,49.0,29.97,SW,225,1.0,12.0,59,0.00,,,0.00,Rainwise IP-100,2013-09-14 17:31:00,
2013-09-14 13:36:00,64.0,47.0,29.97,NNW,337,10.0,10.0,55,0.00,,,0.00,Rainwise IP-100,2013-09-14 17:36:00,
2013-09-14 13:41:00,63.0,48.0,29.98,NW,315,4.0,17.0,59,0.00,,,0.00,Rainwise IP-100,2013-09-14 17:41:00,
2013-09-14 13:46:00,64.0,49.0,29.98,East,90,0.0,10.0,59,0.00,,,0.00,Rainwise IP-100,2013-09-14 17:46:00,
2013-09-14 13:51:00,64.0,48.0,29.96,NE,45,4.0,8.0,56,0.00,,,0.00,Rainwise IP-100,2013-09-14 17:51:00,
2013-09-14 13:56:00,65.0,49.0,29.96,NNW,337,2.0,10.0,57,0.00,,,0.00,Rainwise IP-100,2013-09-14 17:56:00,
2013-09-14 14:01:00,64.0,48.0,29.96,North,360,1.0,7.0,57,0.00,,,0.00,Rainwise IP-100,2013-09-14 18:01:00,
2013-09-14 14:06:00,65.0,50.0,29.96,NW,315,2.0,8.0,58,0.00,,,0.00,Rainwise IP-100,2013-09-14 18:06:00,
2013-09-14 14:11:00,65.0,48.0,29.96,North,360,0.0,9.0,55,0.00,,,0.00,Rainwise IP-100,2013-09-14 18:11:00,
2013-09-14 14:16:00,65.0,48.0,29.96,North,360,6.0,12.0,55,0.00,,,0.00,Rainwise IP-100,2013-09-14 18:16:00,
2013-09-14 14:21:00,65.0,49.0,29.96,NW,315,3.0,6.0,56,0.00,,,0.00,Rainwise IP-100,2013-09-14 18:21:00,
2013-09-14 14:26:00,66.0,49.0,29.96,NW,315,4.0,7.0,54,0.00,,,0.00,Rainwise IP-100,2013-09-14 18:26:00,
2013-09-14 14:31:00,66.0,50.0,29.96,NW,315,1.0,10.0,57,0.00,,,0.00,Rainwise IP-100,2013-09-14 18:31:00,
2013-09-14 14:36:00,65.0,50.0,29.96,SE,135,0.0,12.0,58,0.00,,,0.00,Rainwise IP-100,2013-09-14 18:36:00,
2013-09-14 14:41:00,64.0,49.0,29.97,West,270,4.0,9.0,59,0.00,,,0.00,Rainwise IP-100,2013-09-14 18:41:00,
2013-09-14 14:46:00,64.0,48.0,29.97,NW,315,0.0,8.0,57,0.00,,,0.00,Rainwise IP-100,2013-09-14 18:46:00,
2013-09-14 14:51:00,64.0,48.0,29.97,WNW,292,7.0,8.0,57,0.00,,,0.00,Rainwise IP-100,2013-09-14 18:51:00,
2013-09-14 14:56:00,63.0,48.0,29.97,NW,315,4.0,9.0,59,0.00,,,0.00,Rainwise IP-100,2013-09-14 18:56:00,
2013-09-14 15:01:00,64.0,48.0,29.98,NNW,337,6.0,8.0,57,0.00,,,0.00,Rainwise IP-100,2013-09-14 19:01:00,
2013-09-14 15:06:00,64.0,47.0,29.98,NNE,22,6.0,10.0,54,0.00,,,0.00,Rainwise IP-100,2013-09-14 19:06:00,
2013-09-14 15:11:00,64.0,48.0,29.97,NE,45,4.0,7.0,56,0.00,,,0.00,Rainwise IP-100,2013-09-14 19:11:00,
2013-09-14 15:16:00,64.0,49.0,29.97,NW,315,1.0,8.0,58,0.00,,,0.00,Rainwise IP-100,2013-09-14 19:16:00,
2013-09-14 15:21:00,64.0,50.0,29.97,North,360,1.0,7.0,60,0.00,,,0.00,Rainwise IP-100,2013-09-14 19:21:00,
2013-09-14 15:26:00,64.0,49.0,29.97,NNW,337,8.0,8.0,59,0.00,,,0.00,Rainwise IP-100,2013-09-14 19:26:00,
2013-09-14 15:31:00,64.0,48.0,29.97,NW,315,2.0,10.0,57,0.00,,,0.00,Rainwise IP-100,2013-09-14 19:31:00,
2013-09-14 15:36:00,64.0,48.0,29.97,WSW,247,5.0,7.0,57,0.00,,,0.00,Rainwise IP-100,2013-09-14 19:36:00,
2013-09-14 15:41:00,64.0,47.0,29.97,NW,315,1.0,9.0,55,0.00,,,0.00,Rainwise IP-100,2013-09-14 19:41:00,
2013-09-14 15:46:00,64.0,50.0,29.97,SW,225,1.0,7.0,60,0.00,,,0.00,Rainwise IP-100,2013-09-14 19:46:00,
2013-09-14 15:51:00,63.0,47.0,29.97,NW,315,7.0,8.0,57,0.00,,,0.00,Rainwise IP-100,2013-09-14 19:51:00,
2013-09-14 15:56:00,64.0,49.0,29.97,South,180,2.0,7.0,59,0.00,,,0.00,Rainwise IP-100,2013-09-14 19:56:00,
2013-09-14 16:01:00,65.0,49.0,29.97,WNW,292,2.0,11.0,57,0.00,,,0.00,Rainwise IP-100,2013-09-14 20:01:00,
2013-09-14 16:06:00,66.0,49.0,29.97,NW,315,1.0,9.0,55,0.00,,,0.00,Rainwise IP-100,2013-09-14 20:06:00,
2013-09-14 16:11:00,66.0,48.0,29.96,West,270,2.0,12.0,53,0.00,,,0.00,Rainwise IP-100,2013-09-14 20:11:00,
2013-09-14 16:16:00,65.0,48.0,29.96,NNW,337,4.0,9.0,55,0.00,,,0.00,Rainwise IP-100,2013-09-14 20:16:00,
2013-09-14 16:21:00,66.0,49.0,29.97,NW,315,2.0,7.0,55,0.00,,,0.00,Rainwise IP-100,2013-09-14 20:21:00,
2013-09-14 16:26:00,66.0,48.0,29.97,NW,315,6.0,8.0,53,0.00,,,0.00,Rainwise IP-100,2013-09-14 20:26:00,
2013-09-14 16:31:00,65.0,47.0,29.97,NNW,337,6.0,11.0,54,0.00,,,0.00,Rainwise IP-100,2013-09-14 20:31:00,
2013-09-14 16:36:00,65.0,49.0,29.97,NW,315,5.0,9.0,57,0.00,,,0.00,Rainwise IP-100,2013-09-14 20:36:00,
2013-09-14 16:41:00,65.0,47.0,29.98,North,360,7.0,9.0,53,0.00,,,0.00,Rainwise IP-100,2013-09-14 20:41:00,
2013-09-14 16:46:00,66.0,49.0,29.98,SW,225,4.0,10.0,55,0.00,,,0.00,Rainwise IP-100,2013-09-14 20:46:00,
2013-09-14 16:51:00,67.0,50.0,29.97,NNW,337,2.0,6.0,53,0.00,,,0.00,Rainwise IP-100,2013-09-14 20:51:00,
2013-09-14 16:56:00,68.0,49.0,29.97,NNW,337,0.0,6.0,51,0.00,,,0.00,Rainwise IP-100,2013-09-14 20:56:00,
2013-09-14 17:01:00,68.0,49.0,29.97,East,90,2.0,7.0,51,0.00,,,0.00,Rainwise IP-100,2013-09-14 21:01:00,
2013-09-14 17:06:00,65.0,47.0,29.97,NW,315,2.0,15.0,53,0.00,,,0.00,Rainwise IP-100,2013-09-14 21:06:00,
2013-09-14 17:11:00,64.0,49.0,30.00,NE,45,5.0,11.0,59,0.00,,,0.00,Rainwise IP-100,2013-09-14 21:11:00,
2013-09-14 17:16:00,63.0,48.0,30.00,North,360,9.0,10.0,58,0.00,,,0.00,Rainwise IP-100,2013-09-14 21:16:00,
2013-09-14 17:21:00,62.0,48.0,30.01,North,360,3.0,11.0,60,0.00,,,0.00,Rainwise IP-100,2013-09-14 21:21:00,
2013-09-14 17:26:00,62.0,49.0,30.01,NE,45,8.0,9.0,62,0.00,,,0.00,Rainwise IP-100,2013-09-14 21:26:00,
2013-09-14 17:31:00,61.0,49.0,30.02,North,360,2.0,12.0,65,0.00,,,0.00,Rainwise IP-100,2013-09-14 21:31:00,
2013-09-14 17:36:00,61.0,49.0,30.02,NNE,22,2.0,12.0,64,0.00,,,0.00,Rainwise IP-100,2013-09-14 21:36:00,
2013-09-14 17:41:00,61.0,49.0,30.03,NW,315,1.0,11.0,65,0.00,,,0.00,Rainwise IP-100,2013-09-14 21:41:00,
2013-09-14 17:46:00,61.0,50.0,30.03,North,360,4.0,6.0,67,0.00,,,0.00,Rainwise IP-100,2013-09-14 21:46:00,
2013-09-14 17:51:00,61.0,49.0,30.03,North,360,7.0,9.0,64,0.00,,,0.00,Rainwise IP-100,2013-09-14 21:51:00,
2013-09-14 17:56:00,61.0,49.0,30.03,NW,315,5.0,9.0,64,0.00,,,0.00,Rainwise IP-100,2013-09-14 21:56:00,
2013-09-14 18:01:00,60.0,49.0,30.03,North,360,1.0,8.0,67,0.00,,,0.00,Rainwise IP-100,2013-09-14 22:01:00,
2013-09-14 18:06:00,60.0,49.0,30.03,SW,225,1.0,7.0,67,0.00,,,0.00,Rainwise IP-100,2013-09-14 22:06:00,
2013-09-14 18:11:00,60.0,49.0,30.04,NNE,22,0.0,7.0,67,0.00,,,0.00,Rainwise IP-100,2013-09-14 22:11:00,
2013-09-14 18:16:00,59.0,47.0,30.04,NW,315,6.0,10.0,66,0.00,,,0.00,Rainwise IP-100,2013-09-14 22:16:00,
2013-09-14 18:21:00,59.0,49.0,30.04,NW,315,2.0,12.0,70,0.00,,,0.00,Rainwise IP-100,2013-09-14 22:21:00,
2013-09-14 18:26:00,59.0,49.0,30.04,North,360,2.0,10.0,70,0.00,,,0.00,Rainwise IP-100,2013-09-14 22:26:00,
2013-09-14 18:31:00,59.0,49.0,30.04,NE,45,0.0,4.0,69,0.00,,,0.00,Rainwise IP-100,2013-09-14 22:31:00,
2013-09-14 18:36:00,59.0,50.0,30.04,South,180,0.0,9.0,73,0.00,,,0.00,Rainwise IP-100,2013-09-14 22:36:00,
2013-09-14 18:41:00,59.0,50.0,30.04,South,180,1.0,5.0,72,0.00,,,0.00,Rainwise IP-100,2013-09-14 22:41:00,
2013-09-14 18:46:00,59.0,49.0,30.04,NNE,22,2.0,9.0,70,0.00,,,0.00,Rainwise IP-100,2013-09-14 22:46:00,
2013-09-14 18:51:00,59.0,50.0,30.05,WNW,292,4.0,4.0,72,0.00,,,0.00,Rainwise IP-100,2013-09-14 22:51:00,
2013-09-14 18:56:00,58.0,48.0,30.05,NE,45,1.0,9.0,70,0.00,,,0.00,Rainwise IP-100,2013-09-14 22:56:00,
2013-09-14 19:01:00,58.0,50.0,30.05,North,360,1.0,6.0,73,0.00,,,0.00,Rainwise IP-100,2013-09-14 23:01:00,
2013-09-14 19:06:00,58.0,49.0,30.05,WNW,292,1.0,7.0,71,0.00,,,0.00,Rainwise IP-100,2013-09-14 23:06:00,
2013-09-14 19:11:00,58.0,49.0,30.06,WNW,292,1.0,6.0,71,0.00,,,0.00,Rainwise IP-100,2013-09-14 23:11:00,
2013-09-14 19:16:00,57.0,48.0,30.06,North,360,6.0,6.0,72,0.00,,,0.00,Rainwise IP-100,2013-09-14 23:16:00,
2013-09-14 19:21:00,57.0,49.0,30.06,SW,225,0.0,7.0,75,0.00,,,0.00,Rainwise IP-100,2013-09-14 23:21:00,
2013-09-14 19:26:00,57.0,49.0,30.06,SE,135,0.0,4.0,74,0.00,,,0.00,Rainwise IP-100,2013-09-14 23:26:00,
2013-09-14 19:31:00,57.0,49.0,30.06,North,360,0.0,3.0,74,0.00,,,0.00,Rainwise IP-100,2013-09-14 23:31:00,
2013-09-14 19:36:00,56.0,48.0,30.06,East,90,2.0,4.0,75,0.00,,,0.00,Rainwise IP-100,2013-09-14 23:36:00,
2013-09-14 19:41:00,56.0,47.0,30.06,North,360,0.0,7.0,74,0.00,,,0.00,Rainwise IP-100,2013-09-14 23:41:00,
2013-09-14 19:46:00,56.0,47.0,30.06,NW,315,0.0,6.0,74,0.00,,,0.00,Rainwise IP-100,2013-09-14 23:46:00,
2013-09-14 19:51:00,56.0,48.0,30.07,SW,225,0.0,9.0,75,0.00,,,0.00,Rainwise IP-100,2013-09-14 23:51:00,
2013-09-14 19:56:00,56.0,47.0,30.07,NNW,337,0.0,9.0,74,0.00,,,0.00,Rainwise IP-100,2013-09-14 23:56:00,
2013-09-14 20:01:00,56.0,48.0,30.08,NNW,337,0.0,3.0,76,0.00,,,0.00,Rainwise IP-100,2013-09-15 00:01:00,
2013-09-14 20:06:00,56.0,48.0,30.08,North,360,4.0,4.0,76,0.00,,,0.00,Rainwise IP-100,2013-09-15 00:06:00,
2013-09-14 20:11:00,55.0,48.0,30.08,NW,315,0.0,6.0,77,0.00,,,0.00,Rainwise IP-100,2013-09-15 00:11:00,
2013-09-14 20:16:00,55.0,48.0,30.08,NNE,22,0.0,4.0,78,0.00,,,0.00,Rainwise IP-100,2013-09-15 00:16:00,
2013-09-14 20:21:00,54.0,48.0,30.09,NNE,22,0.0,3.0,80,0.00,,,0.00,Rainwise IP-100,2013-09-15 00:21:00,
2013-09-14 20:26:00,54.0,48.0,30.09,West,270,0.0,6.0,81,0.00,,,0.00,Rainwise IP-100,2013-09-15 00:26:00,
2013-09-14 20:31:00,53.0,47.0,30.10,North,360,1.0,4.0,81,0.00,,,0.00,Rainwise IP-100,2013-09-15 00:31:00,
2013-09-14 20:36:00,53.0,47.0,30.10,North,360,0.0,2.0,82,0.00,,,0.00,Rainwise IP-100,2013-09-15 00:36:00,
2013-09-14 20:41:00,52.0,47.0,30.11,North,360,0.0,0.0,84,0.00,,,0.00,Rainwise IP-100,2013-09-15 00:41:00,
2013-09-14 20:46:00,52.0,47.0,30.11,North,360,0.0,0.0,85,0.00,,,0.00,Rainwise IP-100,2013-09-15 00:46:00,
2013-09-14 20:51:00,52.0,48.0,30.11,North,360,0.0,0.0,87,0.00,,,0.00,Rainwise IP-100,2013-09-15 00:51:00,
2013-09-14 20:56:00,51.0,47.0,30.11,North,360,0.0,0.0,88,0.00,,,0.00,Rainwise IP-100,2013-09-15 00:56:00,
2013-09-14 21:01:00,51.0,48.0,30.12,North,360,0.0,1.0,89,0.00,,,0.00,Rainwise IP-100,2013-09-15 01:01:00,
2013-09-14 21:06:00,51.0,48.0,30.12,North,360,0.0,0.0,90,0.00,,,0.00,Rainwise IP-100,2013-09-15 01:06:00,
2013-09-14 21:11:00,50.0,47.0,30.12,North,360,0.0,0.0,90,0.00,,,0.00,Rainwise IP-100,2013-09-15 01:11:00,
2013-09-14 21:16:00,50.0,47.0,30.12,SW,225,0.0,2.0,91,0.00,,,0.00,Rainwise IP-100,2013-09-15 01:16:00,
2013-09-14 21:21:00,50.0,47.0,30.12,NW,315,0.0,2.0,91,0.00,,,0.00,Rainwise IP-100,2013-09-15 01:21:00,
2013-09-14 21:26:00,50.0,47.0,30.12,SSW,202,1.0,3.0,91,0.00,,,0.00,Rainwise IP-100,2013-09-15 01:26:00,
2013-09-14 21:31:00,50.0,47.0,30.13,SW,225,1.0,4.0,92,0.00,,,0.00,Rainwise IP-100,2013-09-15 01:31:00,
2013-09-14 21:36:00,50.0,47.0,30.13,SSW,202,1.0,2.0,91,0.00,,,0.00,Rainwise IP-100,2013-09-15 01:36:00,
2013-09-14 21:41:00,50.0,47.0,30.12,NNW,337,0.0,3.0,90,0.00,,,0.00,Rainwise IP-100,2013-09-15 01:41:00,
2013-09-14 21:46:00,50.0,47.0,30.12,NNW,337,1.0,3.0,90,0.00,,,0.00,Rainwise IP-100,2013-09-15 01:46:00,
2013-09-14 21:51:00,50.0,47.0,30.12,WNW,292,1.0,2.0,90,0.00,,,0.00,Rainwise IP-100,2013-09-15 01:51:00,
2013-09-14 21:56:00,50.0,47.0,30.12,West,270,1.0,3.0,91,0.00,,,0.00,Rainwise IP-100,2013-09-15 01:56:00,
2013-09-14 22:01:00,50.0,47.0,30.12,West,270,1.0,2.0,90,0.00,,,0.00,Rainwise IP-100,2013-09-15 02:01:00,
2013-09-14 22:06:00,50.0,47.0,30.12,WSW,247,0.0,3.0,91,0.00,,,0.00,Rainwise IP-100,2013-09-15 02:06:00,
2013-09-14 22:11:00,50.0,47.0,30.13,WSW,247,1.0,3.0,90,0.00,,,0.00,Rainwise IP-100,2013-09-15 02:11:00,
2013-09-14 22:16:00,50.0,47.0,30.13,WSW,247,0.0,4.0,90,0.00,,,0.00,Rainwise IP-100,2013-09-15 02:16:00,
2013-09-14 22:21:00,49.0,47.0,30.13,WSW,247,0.0,2.0,91,0.00,,,0.00,Rainwise IP-100,2013-09-15 02:21:00,
2013-09-14 22:26:00,49.0,47.0,30.13,WSW,247,0.0,2.0,92,0.00,,,0.00,Rainwise IP-100,2013-09-15 02:26:00,
2013-09-14 22:31:00,49.0,47.0,30.13,NW,315,0.0,2.0,92,0.00,,,0.00,Rainwise IP-100,2013-09-15 02:31:00,
2013-09-14 22:36:00,49.0,47.0,30.13,West,270,0.0,4.0,93,0.00,,,0.00,Rainwise IP-100,2013-09-15 02:36:00,
2013-09-14 22:41:00,48.0,47.0,30.13,NW,315,2.0,2.0,94,0.00,,,0.00,Rainwise IP-100,2013-09-15 02:41:00,
2013-09-14 22:46:00,48.0,47.0,30.13,NW,315,0.0,3.0,95,0.00,,,0.00,Rainwise IP-100,2013-09-15 02:46:00,
2013-09-14 22:51:00,48.0,47.0,30.13,NW,315,0.0,0.0,96,0.00,,,0.00,Rainwise IP-100,2013-09-15 02:51:00,
2013-09-14 22:56:00,48.0,47.0,30.13,SW,225,1.0,4.0,96,0.00,,,0.00,Rainwise IP-100,2013-09-15 02:56:00,
2013-09-14 23:01:00,48.0,47.0,30.13,SW,225,0.0,3.0,96,0.00,,,0.00,Rainwise IP-100,2013-09-15 03:01:00,
2013-09-14 23:06:00,48.0,47.0,30.13,SW,225,2.0,3.0,97,0.00,,,0.00,Rainwise IP-100,2013-09-15 03:06:00,
2013-09-14 23:11:00,48.0,48.0,30.14,SW,225,1.0,3.0,99,0.00,,,0.00,Rainwise IP-100,2013-09-15 03:11:00,
2013-09-14 23:16:00,48.0,47.0,30.14,North,360,0.0,5.0,97,0.00,,,0.00,Rainwise IP-100,2013-09-15 03:16:00,
2013-09-14 23:21:00,47.0,46.0,30.14,NNW,337,1.0,4.0,98,0.00,,,0.00,Rainwise IP-100,2013-09-15 03:21:00,
2013-09-14 23:26:00,47.0,47.0,30.14,NW,315,1.0,2.0,99,0.00,,,0.00,Rainwise IP-100,2013-09-15 03:26:00,
2013-09-14 23:31:00,47.0,47.0,30.14,NW,315,1.0,2.0,99,0.00,,,0.00,Rainwise IP-100,2013-09-15 03:31:00,
2013-09-14 23:36:00,47.0,47.0,30.14,NW,315,0.0,3.0,100,0.00,,,0.00,Rainwise IP-100,2013-09-15 03:36:00,
2013-09-14 23:41:00,47.0,47.0,30.14,NW,315,1.0,2.0,99,0.00,,,0.00,Rainwise IP-100,2013-09-15 03:41:00,
2013-09-14 23:46:00,47.0,47.0,30.14,NW,315,0.0,2.0,99,0.00,,,0.00,Rainwise IP-100,2013-09-15 03:46:00,
2013-09-14 23:51:00,47.0,46.0,30.15,South,180,0.0,2.0,98,0.00,,,0.00,Rainwise IP-100,2013-09-15 03:51:00,
2013-09-14 23:56:00,48.0,47.0,30.15,West,270,0.0,2.0,95,0.00,,,0.00,Rainwise IP-100,2013-09-15 03:56:00,